Hot Springs, VA

7:27 AM EST on December 13, 2017 (GMT -0500)
Ingalls

Weather History for KHSP - May, 2012

Change the Weather History Date:

Tuesday, May 15, 2012

  Actual Average Record
Temperature  
Mean Temperature 58 °F -  
Max Temperature 64 °F 63 °F 80 °F (1998)
Min Temperature 53 °F 47 °F 32 °F (2016)
Degree Days  
Heating Degree Days 6    
Growing Degree Days 8 (Base 50)    
Moisture  
Dew Point 56 °F    
Average Humidity 93    
Maximum Humidity 100    
Minimum Humidity 77    
Precipitation  
Precipitation 0.38 in - - ()
Sea Level Pressure  
Sea Level Pressure 30.09 in    
Wind  
Wind Speed 4 mph (WNW)    
Max Wind Speed 10 mph    
Max Gust Speed -    
Visibility 6 miles    
Events Fog , Rain , Thunderstorm    
Averages and records for this station are not official NWS values.
T = Trace of Precipitation, MM = Missing Value Source: NWS Daily Summary

Daily Weather History Graph

Daily Weather History Graph

Search for Another Location

Airport or City:

Trip Planner

Search our weather history database for the weather conditions in past years. The results will help you decide how hot, cold, wet, or windy it might be!

Date:

Astronomy

May. 15, 2012 Rise Set
Actual Time 6:08 AM EDT 8:23 PM EDT
Civil Twilight 5:39 AM EDT 8:52 PM EDT
Nautical Twilight 5:02 AM EDT 9:29 PM EDT
Astronomical Twilight 4:23 AM EDT 10:08 PM EDT
Moon 3:05 AM EDT (5/15) 3:44 PM EDT (5/15)
Length of Visible Light 15h 13m
Length of Day
14h 14m
Waning Crescent, 24% of the Moon is Illuminated
May 15
Waning Crescent
May 20
New
May 28
First Quarter
Jun 4
Full
Jun 11
Last Quarter

Hourly Weather History & Observations

Time (EDT) Temp. Dew Point Humidity Pressure Visibility Wind Dir Wind Speed Gust Speed Precip Events Conditions
12:16 AM 55.4 °F 55.4 °F 100% 30.10 in 0.2 mi Calm Calm - N/A Rain Rain
12:36 AM 55.4 °F 55.4 °F 100% 30.09 in 0.2 mi Calm Calm - N/A   Drizzle
12:56 AM 55.4 °F 55.4 °F 100% 30.09 in 0.2 mi Calm Calm - N/A Fog Fog
1:16 AM 55.4 °F 55.4 °F 100% 30.09 in 0.2 mi West 4.6 mph - N/A Fog , Thunderstorm Fog
1:36 AM 55.4 °F 55.4 °F 100% 30.08 in 0.2 mi West 4.6 mph - N/A Fog Fog
1:56 AM 55.4 °F 55.4 °F 100% 30.08 in 0.5 mi West 4.6 mph - N/A Fog , Thunderstorm Fog
2:16 AM 55.4 °F 55.4 °F 100% 30.07 in 0.5 mi West 5.8 mph - N/A Fog Fog
2:36 AM 55.4 °F 55.4 °F 100% 30.07 in 0.2 mi West 5.8 mph - N/A Fog Fog
2:56 AM 55.4 °F 55.4 °F 100% 30.07 in 0.2 mi West 5.8 mph - N/A Fog Fog
3:16 AM 55.4 °F 55.4 °F 100% 30.06 in 0.2 mi WSW 4.6 mph - N/A Fog Fog
3:36 AM 53.6 °F 53.6 °F 100% 30.06 in 0.2 mi WSW 5.8 mph - N/A Fog Fog
3:56 AM 55.4 °F 55.4 °F 100% 30.06 in 0.2 mi West 8.1 mph - N/A Fog Fog
4:18 AM 55.4 °F 55.4 °F 100% 30.05 in 0.2 mi WNW 9.2 mph - N/A Fog Fog
4:36 AM 55.4 °F 55.4 °F 100% 30.05 in 0.2 mi West 10.4 mph - N/A Fog Fog
4:56 AM 55.4 °F 55.4 °F 100% 30.05 in 0.2 mi West 9.2 mph - 0.01 in Fog Fog
5:16 AM 55.4 °F 55.4 °F 100% 30.06 in 0.2 mi West 9.2 mph - 0.01 in Fog Fog
5:36 AM 55.4 °F 55.4 °F 100% 30.07 in 0.2 mi West 10.4 mph - 0.01 in Fog Fog
5:56 AM 55.4 °F 55.4 °F 100% 30.08 in 0.2 mi West 6.9 mph - N/A Fog Fog
6:16 AM 55.4 °F 55.4 °F 100% 30.08 in 0.2 mi West 6.9 mph - N/A Fog Fog
6:36 AM 55.4 °F 55.4 °F 100% 30.08 in 0.2 mi WNW 8.1 mph - N/A Fog Fog
7:16 AM 55.4 °F 55.4 °F 100% 30.08 in 0.2 mi WNW 8.1 mph - N/A Fog Fog
7:56 AM 55.4 °F 55.4 °F 100% 30.09 in 0.2 mi West 6.9 mph - N/A Fog Fog
8:16 AM 55.4 °F 55.4 °F 100% 30.09 in 0.2 mi WNW 6.9 mph - N/A Fog Fog
8:36 AM 55.4 °F 55.4 °F 100% 30.09 in 0.2 mi WNW 3.5 mph - N/A Fog Fog
8:56 AM 55.4 °F 55.4 °F 100% 30.10 in 0.2 mi WNW 4.6 mph - N/A Fog Fog
9:16 AM 55.4 °F 55.4 °F 100% 30.10 in 1.0 mi NW 3.5 mph - N/A   Overcast
9:36 AM 55.4 °F 55.4 °F 100% 30.10 in 5.0 mi NW 5.8 mph - N/A   Overcast
9:57 AM 55.4 °F 55.4 °F 100% 30.11 in 10.0 mi WNW 4.6 mph - N/A   Overcast
10:16 AM 55.4 °F 55.4 °F 100% 30.11 in 10.0 mi NW 4.6 mph - N/A   Overcast
10:36 AM 57.2 °F 57.2 °F 100% 30.11 in 10.0 mi NW 3.5 mph - N/A   Overcast
10:56 AM 57.2 °F 57.2 °F 100% 30.12 in 10.0 mi NW 6.9 mph - N/A   Overcast
11:16 AM 57.2 °F 57.2 °F 100% 30.12 in 10.0 mi WNW 6.9 mph - N/A   Overcast
11:36 AM 57.2 °F 57.2 °F 100% 30.12 in 10.0 mi WNW 4.6 mph - N/A   Overcast
11:56 AM 60.8 °F 60.8 °F 100% 30.12 in 10.0 mi WNW 4.6 mph - N/A   Scattered Clouds
12:16 PM 60.8 °F 59.0 °F 94% 30.12 in 10.0 mi WSW 5.8 mph - N/A   Mostly Cloudy
12:36 PM 60.8 °F 59.0 °F 94% 30.12 in 10.0 mi NNW 4.6 mph - N/A   Mostly Cloudy
12:56 PM 60.8 °F 57.2 °F 88% 30.11 in 10.0 mi Calm Calm - N/A   Overcast
1:16 PM 62.6 °F 57.2 °F 82% 30.11 in 10.0 mi WNW 5.8 mph - N/A   Overcast
1:36 PM 62.6 °F 59.0 °F 88% 30.11 in 10.0 mi SSE 4.6 mph - N/A   Mostly Cloudy
1:56 PM 60.8 °F 60.8 °F 100% 30.11 in 10.0 mi SE 4.6 mph - N/A   Overcast
2:18 PM 62.6 °F 59.0 °F 88% 30.10 in 10.0 mi South 6.9 mph - N/A   Overcast
2:36 PM 60.8 °F 60.8 °F 100% 30.11 in 10.0 mi SW 6.9 mph - N/A Rain Light Rain
2:56 PM 60.8 °F 59.0 °F 94% 30.10 in 10.0 mi Calm Calm - N/A Rain Light Rain
3:16 PM 64.4 °F 57.2 °F 77% 30.10 in 10.0 mi WSW 6.9 mph - N/A   Mostly Cloudy
3:36 PM 64.4 °F 57.2 °F 77% 30.10 in 10.0 mi WNW 4.6 mph - N/A   Mostly Cloudy
3:56 PM 64.4 °F 57.2 °F 77% 30.09 in 10.0 mi NW 3.5 mph - N/A   Mostly Cloudy
4:17 PM 62.6 °F 57.2 °F 82% 30.09 in 10.0 mi West 6.9 mph - N/A   Overcast
4:36 PM 60.8 °F 57.2 °F 88% 30.09 in 7.0 mi WNW 5.8 mph - 0.01 in Rain Light Rain
5:16 PM 60.8 °F 57.2 °F 88% 30.09 in 2.0 mi North 3.5 mph - 0.20 in Rain Heavy Rain
5:36 PM 60.8 °F 57.2 °F 88% 30.09 in 10.0 mi WNW 3.5 mph - 0.35 in   Overcast
5:56 PM 60.8 °F 57.2 °F 88% 30.10 in 10.0 mi WNW 3.5 mph - N/A   Overcast
6:16 PM 62.6 °F 57.2 °F 82% 30.09 in 10.0 mi NNW 8.1 mph - N/A   Overcast
6:36 PM 60.8 °F 55.4 °F 82% 30.09 in 10.0 mi NW 6.9 mph - N/A   Mostly Cloudy
6:56 PM 60.8 °F 55.4 °F 82% 30.09 in 10.0 mi NW 4.6 mph - N/A   Mostly Cloudy
7:16 PM 60.8 °F 53.6 °F 77% 30.09 in 10.0 mi Calm Calm - N/A   Scattered Clouds
7:36 PM 60.8 °F 53.6 °F 77% 30.09 in 10.0 mi WNW 4.6 mph - N/A   Mostly Cloudy
7:56 PM 60.8 °F 53.6 °F 77% 30.09 in 10.0 mi Calm Calm - N/A   Scattered Clouds
8:16 PM 60.8 °F 53.6 °F 77% 30.09 in 10.0 mi NNW 3.5 mph - N/A   Scattered Clouds
8:36 PM 57.2 °F 53.6 °F 88% 30.10 in 10.0 mi WNW 5.8 mph - N/A   Clear
8:56 PM 59.0 °F 53.6 °F 82% 30.11 in 10.0 mi WNW 4.6 mph - N/A   Clear
9:16 PM 57.2 °F 53.6 °F 88% 30.11 in 10.0 mi NNW 4.6 mph - N/A   Scattered Clouds
9:36 PM 57.2 °F 53.6 °F 88% 30.11 in 10.0 mi North 4.6 mph - N/A   Scattered Clouds
9:56 PM 57.2 °F 53.6 °F 88% 30.12 in 10.0 mi NW 4.6 mph - N/A   Mostly Cloudy
10:16 PM 57.2 °F 53.6 °F 88% 30.12 in 10.0 mi Calm Calm - N/A   Overcast
10:36 PM 57.2 °F 53.6 °F 88% 30.12 in 10.0 mi Calm Calm - N/A   Overcast
10:56 PM 55.4 °F 53.6 °F 94% 30.12 in 10.0 mi NW 4.6 mph - N/A   Scattered Clouds
11:16 PM 55.4 °F 53.6 °F 94% 30.12 in 10.0 mi WNW 3.5 mph - N/A   Clear
11:36 PM 55.4 °F 53.6 °F 94% 30.11 in 10.0 mi NNW 3.5 mph - N/A   Mostly Cloudy
11:56 PM 57.2 °F 53.6 °F 88% 30.12 in 10.0 mi Calm Calm - N/A   Overcast